Location: Pedholt
(56.0260°N, 10.2097°E)
Time: 21:18:24
(UTC+00:00)

Tiros 1 - Pass Details

Date: 08 August 2021
Orbit: 630 x 663 km, 48.4° (Epoch: 19 September)

Event Time Altitude Azimuth Distance (km) Brightness Sun altitude
Rises 14:19:26 0° 199° (SSW) 2,986 11.2 38.1°
Reaches altitude 10° 14:22:58 10° 172° (S) 2,075 10.1 37.7°
Maximum altitude 14:25:10 13° 145° (SE) 1,872 9.6 37.4°
Drops below altitude 10° 14:27:22 10° 117° (ESE) 2,075 9.6 37.1°
Sets 14:30:53 0° 91° (E) 2,984 10.1 36.7°
